Zurück zum Katalog

LEMUR-2-DEANANDMAEVE

AktivWissenschaftSSO
NORAD 66680·PAYLOAD·🇺🇸 United States

Gestartet Nov 28, 2025 von Vandenberg Space Force Base

Loading…

Nächste Überflüge (nächste 24 Stunden)

TLE

AktuellSource: Space-Track

Epoche: Sep 14, 2026, 15:25 UTC

1 66680U 25276Q   26257.64257783  .00004130  00000-0  19482-3 0  9997
2 66680  97.4128 329.4548 0006917  56.3113 303.8780 15.20000474 43993

Verfolge LEMUR-2-DEANANDMAEVE in Echtzeit mit AllMySat

Download on the App Store